Time,TemperatureF,DewpointF,PressureIn,WindDirection,WindDirectionDegrees,WindSpeedMPH,WindSpeedGustMPH,Humidity,HourlyPrecipIn,Conditions,Clouds,dailyrainin,SoftwareType,DateUTC
2013-05-16 00:01:00,64.6,60.3,29.75,West,279,0.0,1.0,86,0.00,,---,0.00,VWS V14.01,2013-05-16 04:01:00,
2013-05-16 00:06:00,64.6,60.3,29.75,West,279,0.0,0.0,86,0.00,,---,0.00,VWS V14.01,2013-05-16 04:06:00,
2013-05-16 00:11:00,64.5,60.2,29.75,West,279,0.0,0.0,86,0.00,,---,0.00,VWS V14.01,2013-05-16 04:11:00,
2013-05-16 00:16:00,64.4,60.1,29.76,West,279,0.0,0.0,86,0.00,,---,0.00,VWS V14.01,2013-05-16 04:16:00,
2013-05-16 00:21:00,64.4,60.5,29.76,West,279,0.0,0.0,87,0.00,,---,0.00,VWS V14.01,2013-05-16 04:21:00,
2013-05-16 00:26:00,64.3,60.3,29.76,West,279,0.0,0.0,87,0.00,,---,0.00,VWS V14.01,2013-05-16 04:26:00,
2013-05-16 00:31:00,64.2,60.3,29.75,West,279,0.0,0.0,87,0.00,,---,0.00,VWS V14.01,2013-05-16 04:31:00,
2013-05-16 00:36:00,64.1,60.2,29.76,West,279,0.0,0.0,87,0.00,,---,0.00,VWS V14.01,2013-05-16 04:36:00,
2013-05-16 00:41:00,64.0,60.1,29.75,West,279,0.0,0.0,87,0.00,,---,0.00,VWS V14.01,2013-05-16 04:41:00,
2013-05-16 00:46:00,63.9,60.0,29.75,West,279,0.0,0.0,87,0.00,,---,0.00,VWS V14.01,2013-05-16 04:46:00,
2013-05-16 00:51:00,63.8,60.2,29.75,West,279,0.0,0.0,88,0.00,,---,0.00,VWS V14.01,2013-05-16 04:51:00,
2013-05-16 00:56:00,63.8,60.2,29.75,West,279,0.0,0.0,88,0.00,,---,0.00,VWS V14.01,2013-05-16 04:56:00,
2013-05-16 01:01:00,63.7,60.1,29.75,West,279,0.0,0.0,88,0.00,,---,0.00,VWS V14.01,2013-05-16 05:01:00,
2013-05-16 01:06:00,63.6,60.0,29.75,West,279,0.0,1.0,88,0.00,,---,0.00,VWS V14.01,2013-05-16 05:06:00,
2013-05-16 01:11:00,63.6,60.0,29.75,West,279,0.0,0.0,88,0.00,,---,0.00,VWS V14.01,2013-05-16 05:11:00,
2013-05-16 01:16:00,63.5,59.9,29.75,West,279,0.0,0.0,88,0.00,,---,0.00,VWS V14.01,2013-05-16 05:16:00,
2013-05-16 01:21:00,63.4,59.8,29.75,West,279,0.0,0.0,88,0.00,,---,0.00,VWS V14.01,2013-05-16 05:21:00,
2013-05-16 01:26:00,63.4,59.8,29.75,West,279,0.0,0.0,88,0.00,,---,0.00,VWS V14.01,2013-05-16 05:26:00,
2013-05-16 01:31:00,63.3,59.7,29.76,West,279,0.0,0.0,88,0.00,,---,0.00,VWS V14.01,2013-05-16 05:31:00,
2013-05-16 01:36:00,63.3,59.7,29.76,West,279,0.0,0.0,88,0.00,,---,0.00,VWS V14.01,2013-05-16 05:36:00,
2013-05-16 01:41:00,63.2,59.6,29.76,West,279,0.0,0.0,88,0.00,,---,0.00,VWS V14.01,2013-05-16 05:41:00,
2013-05-16 01:46:00,63.1,59.5,29.76,West,279,0.0,0.0,88,0.00,,---,0.00,VWS V14.01,2013-05-16 05:46:00,
2013-05-16 01:51:00,63.1,59.5,29.76,West,279,0.0,0.0,88,0.00,,---,0.00,VWS V14.01,2013-05-16 05:51:00,
2013-05-16 01:56:00,63.0,59.4,29.76,West,279,0.0,0.0,88,0.00,,---,0.00,VWS V14.01,2013-05-16 05:56:00,
2013-05-16 02:01:00,63.0,59.4,29.76,West,279,0.0,0.0,88,0.00,,---,0.00,VWS V14.01,2013-05-16 06:01:00,
2013-05-16 02:06:00,63.0,59.4,29.76,West,279,0.0,0.0,88,0.00,,---,0.00,VWS V14.01,2013-05-16 06:06:00,
2013-05-16 02:11:00,62.9,59.3,29.75,West,279,0.0,0.0,88,0.00,,---,0.00,VWS V14.01,2013-05-16 06:11:00,
2013-05-16 02:16:00,62.9,59.3,29.75,West,279,0.0,0.0,88,0.00,,---,0.00,VWS V14.01,2013-05-16 06:16:00,
2013-05-16 02:21:00,62.9,59.6,29.75,West,279,0.0,0.0,89,0.00,,---,0.00,VWS V14.01,2013-05-16 06:21:00,
2013-05-16 02:26:00,62.9,59.6,29.75,West,279,0.0,0.0,89,0.00,,---,0.00,VWS V14.01,2013-05-16 06:26:00,
2013-05-16 02:31:00,62.9,59.6,29.75,West,279,0.0,0.0,89,0.00,,---,0.00,VWS V14.01,2013-05-16 06:31:00,
2013-05-16 02:36:00,62.9,59.6,29.75,West,279,0.0,0.0,89,0.00,,---,0.00,VWS V14.01,2013-05-16 06:36:00,
2013-05-16 02:41:00,62.9,59.6,29.75,West,279,0.0,0.0,89,0.00,,---,0.00,VWS V14.01,2013-05-16 06:41:00,
2013-05-16 02:46:00,62.9,59.6,29.75,West,279,0.0,0.0,89,0.00,,---,0.00,VWS V14.01,2013-05-16 06:46:00,
2013-05-16 02:51:00,62.9,59.6,29.75,West,279,0.0,0.0,89,0.00,,---,0.00,VWS V14.01,2013-05-16 06:51:00,
2013-05-16 02:56:00,62.9,59.6,29.75,West,279,0.0,0.0,89,0.00,,---,0.00,VWS V14.01,2013-05-16 06:56:00,
2013-05-16 03:01:00,62.9,59.6,29.76,West,279,0.0,0.0,89,0.00,,---,0.00,VWS V14.01,2013-05-16 07:01:00,
2013-05-16 03:06:00,63.0,59.7,29.76,West,279,0.0,0.0,89,0.00,,---,0.00,VWS V14.01,2013-05-16 07:06:00,
2013-05-16 03:11:00,63.0,59.7,29.76,NNW,340,0.0,0.0,89,0.00,,---,0.00,VWS V14.01,2013-05-16 07:11:00,
2013-05-16 03:16:00,63.1,59.8,29.77,NNW,340,0.0,0.0,89,0.00,,---,0.00,VWS V14.01,2013-05-16 07:16:00,
2013-05-16 03:21:00,63.1,59.8,29.77,South,190,1.0,1.0,89,0.01,,---,0.01,VWS V14.01,2013-05-16 07:21:00,
2013-05-16 03:26:00,63.2,60.2,29.77,West,267,0.0,0.0,90,0.01,,---,0.01,VWS V14.01,2013-05-16 07:26:00,
2013-05-16 03:31:00,63.2,60.2,29.76,NW,309,0.0,1.0,90,0.03,,---,0.03,VWS V14.01,2013-05-16 07:31:00,
2013-05-16 03:36:00,63.4,60.4,29.76,West,264,0.0,1.0,90,0.04,,---,0.04,VWS V14.01,2013-05-16 07:36:00,
2013-05-16 03:41:00,63.4,60.4,29.76,WNW,302,0.0,2.0,90,0.05,,---,0.05,VWS V14.01,2013-05-16 07:41:00,
2013-05-16 03:46:00,63.4,60.4,29.77,NNW,329,0.0,5.0,90,0.06,,---,0.06,VWS V14.01,2013-05-16 07:46:00,
2013-05-16 03:55:00,63.4,60.7,29.78,WSW,240,0.0,2.0,91,0.07,,---,0.07,VWS V14.01,2013-05-16 07:55:00,
2013-05-16 04:00:00,63.4,60.7,29.78,WNW,288,0.0,3.0,91,0.08,,---,0.08,VWS V14.01,2013-05-16 08:00:00,
2013-05-16 04:05:00,63.3,60.6,29.78,WNW,288,0.0,0.0,91,0.08,,---,0.08,VWS V14.01,2013-05-16 08:05:00,
2013-05-16 04:10:00,63.3,60.6,29.79,WNW,288,0.0,0.0,91,0.09,,---,0.09,VWS V14.01,2013-05-16 08:10:00,
2013-05-16 04:15:00,63.2,60.5,29.79,WSW,239,0.0,9.0,91,0.09,,---,0.09,VWS V14.01,2013-05-16 08:15:00,
2013-05-16 04:20:00,63.2,60.8,29.78,NNW,340,0.0,2.0,92,0.10,,---,0.10,VWS V14.01,2013-05-16 08:20:00,
2013-05-16 04:25:00,63.1,60.7,29.77,NE,55,0.0,1.0,92,0.10,,---,0.11,VWS V14.01,2013-05-16 08:25:00,
2013-05-16 04:30:00,63.0,60.6,29.78,WSW,240,0.0,1.0,92,0.09,,---,0.11,VWS V14.01,2013-05-16 08:30:00,
2013-05-16 04:35:00,63.0,60.6,29.77,WSW,240,0.0,0.0,92,0.09,,---,0.12,VWS V14.01,2013-05-16 08:35:00,
2013-05-16 04:40:00,62.9,60.5,29.79,WSW,240,0.0,2.0,92,0.09,,---,0.13,VWS V14.01,2013-05-16 08:40:00,
2013-05-16 04:45:00,62.7,60.3,29.79,WSW,240,0.0,0.0,92,0.08,,---,0.13,VWS V14.01,2013-05-16 08:45:00,
2013-05-16 04:50:00,62.7,60.3,29.79,WSW,240,0.0,0.0,92,0.08,,---,0.14,VWS V14.01,2013-05-16 08:50:00,
2013-05-16 04:55:00,62.6,60.5,29.79,WSW,240,0.0,0.0,93,0.07,,---,0.14,VWS V14.01,2013-05-16 08:55:00,
2013-05-16 05:00:00,62.5,60.5,29.79,WSW,240,0.0,0.0,93,0.08,,---,0.15,VWS V14.01,2013-05-16 09:00:00,
2013-05-16 05:05:00,62.4,60.3,29.80,WSW,240,0.0,0.0,93,0.07,,---,0.15,VWS V14.01,2013-05-16 09:05:00,
2013-05-16 05:10:00,62.3,60.2,29.79,SSW,211,0.0,0.0,93,0.06,,---,0.15,VWS V14.01,2013-05-16 09:10:00,
2013-05-16 05:15:00,62.3,60.2,29.79,SSW,211,0.0,0.0,93,0.07,,---,0.16,VWS V14.01,2013-05-16 09:15:00,
2013-05-16 05:20:00,62.2,60.2,29.79,SSW,211,0.0,0.0,93,0.06,,---,0.16,VWS V14.01,2013-05-16 09:20:00,
2013-05-16 05:25:00,62.2,60.2,29.78,SSW,205,0.0,0.0,93,0.07,,---,0.17,VWS V14.01,2013-05-16 09:25:00,
2013-05-16 05:30:00,62.1,60.1,29.78,SSW,205,0.0,0.0,93,0.06,,---,0.17,VWS V14.01,2013-05-16 09:30:00,
2013-05-16 05:35:00,62.0,60.0,29.77,SSW,205,0.0,0.0,93,0.05,,---,0.17,VWS V14.01,2013-05-16 09:35:00,
2013-05-16 05:40:00,61.9,59.9,29.77,SSW,205,0.0,0.0,93,0.04,,---,0.17,VWS V14.01,2013-05-16 09:40:00,
2013-05-16 05:45:00,61.9,59.9,29.78,SSW,205,0.0,0.0,93,0.05,,---,0.18,VWS V14.01,2013-05-16 09:45:00,
2013-05-16 05:50:00,61.8,59.8,29.79,SSW,205,0.0,0.0,93,0.04,,---,0.18,VWS V14.01,2013-05-16 09:50:00,
2013-05-16 05:55:00,61.7,59.7,29.79,SSW,205,0.0,0.0,93,0.04,,---,0.18,VWS V14.01,2013-05-16 09:55:00,
2013-05-16 06:00:00,61.7,59.7,29.79,SSW,205,0.0,0.0,93,0.04,,---,0.19,VWS V14.01,2013-05-16 10:00:00,
2013-05-16 06:05:00,61.6,59.9,29.80,SSW,205,0.0,0.0,94,0.04,,---,0.19,VWS V14.01,2013-05-16 10:05:00,
2013-05-16 06:10:00,61.6,59.9,29.80,SSW,205,1.0,1.0,94,0.04,,---,0.19,VWS V14.01,2013-05-16 10:10:00,
2013-05-16 06:15:00,61.5,59.8,29.80,SSW,205,0.0,0.0,94,0.03,,---,0.19,VWS V14.01,2013-05-16 10:15:00,
2013-05-16 06:20:00,61.5,59.8,29.80,SSW,205,0.0,0.0,94,0.03,,---,0.19,VWS V14.01,2013-05-16 10:20:00,
2013-05-16 06:25:00,61.4,59.7,29.80,SSW,205,0.0,0.0,94,0.03,,---,0.20,VWS V14.01,2013-05-16 10:25:00,
2013-05-16 06:30:00,61.4,59.7,29.80,SSW,205,0.0,0.0,94,0.03,,---,0.20,VWS V14.01,2013-05-16 10:30:00,
2013-05-16 06:35:00,61.3,59.6,29.80,SSW,205,0.0,0.0,94,0.03,,---,0.20,VWS V14.01,2013-05-16 10:35:00,
2013-05-16 06:40:00,61.3,59.6,29.81,SSW,205,0.0,0.0,94,0.03,,---,0.20,VWS V14.01,2013-05-16 10:40:00,
2013-05-16 06:45:00,61.3,59.6,29.81,SSW,205,0.0,0.0,94,0.03,,---,0.21,VWS V14.01,2013-05-16 10:45:00,
2013-05-16 06:50:00,61.3,59.6,29.80,SSW,205,0.0,0.0,94,0.03,,---,0.21,VWS V14.01,2013-05-16 10:50:00,
2013-05-16 06:55:00,61.3,59.6,29.81,SSW,206,0.0,0.0,94,0.03,,---,0.21,VWS V14.01,2013-05-16 10:55:00,
2013-05-16 07:00:00,61.4,60.0,29.81,NNW,333,0.0,0.0,95,0.02,,---,0.21,VWS V14.01,2013-05-16 11:00:00,
2013-05-16 07:05:00,61.4,60.0,29.81,NNW,333,0.0,0.0,95,0.02,,---,0.21,VWS V14.01,2013-05-16 11:05:00,
2013-05-16 07:10:00,61.5,60.1,29.81,South,180,0.0,0.0,95,0.02,,---,0.21,VWS V14.01,2013-05-16 11:10:00,
2013-05-16 07:15:00,61.5,60.1,29.81,WSW,253,0.0,3.0,95,0.02,,---,0.21,VWS V14.01,2013-05-16 11:15:00,
2013-05-16 07:20:00,61.5,60.1,29.81,WSW,253,0.0,0.0,95,0.02,,---,0.21,VWS V14.01,2013-05-16 11:20:00,
2013-05-16 07:25:00,61.6,60.2,29.81,West,280,0.0,0.0,95,0.02,,---,0.22,VWS V14.01,2013-05-16 11:25:00,
2013-05-16 07:30:00,61.7,60.3,29.81,West,280,0.0,0.0,95,0.02,,---,0.22,VWS V14.01,2013-05-16 11:30:00,
2013-05-16 07:35:00,61.7,60.3,29.81,West,280,0.0,0.0,95,0.02,,---,0.22,VWS V14.01,2013-05-16 11:35:00,
2013-05-16 07:40:00,61.8,60.4,29.81,West,280,0.0,0.0,95,0.02,,---,0.22,VWS V14.01,2013-05-16 11:40:00,
2013-05-16 07:45:00,61.8,60.4,29.81,West,280,0.0,0.0,95,0.03,,---,0.23,VWS V14.01,2013-05-16 11:45:00,
2013-05-16 07:50:00,61.9,60.5,29.82,West,280,0.0,0.0,95,0.02,,---,0.23,VWS V14.01,2013-05-16 11:50:00,
2013-05-16 07:55:00,61.9,60.5,29.82,West,280,0.0,0.0,95,0.02,,---,0.23,VWS V14.01,2013-05-16 11:55:00,
2013-05-16 08:00:00,62.0,60.6,29.83,West,280,0.0,0.0,95,0.02,,---,0.23,VWS V14.01,2013-05-16 12:00:00,
2013-05-16 08:05:00,62.1,60.7,29.82,West,280,0.0,0.0,95,0.02,,---,0.23,VWS V14.01,2013-05-16 12:05:00,
2013-05-16 08:10:00,62.2,60.8,29.82,SSW,209,0.0,1.0,95,0.03,,---,0.24,VWS V14.01,2013-05-16 12:10:00,
2013-05-16 08:15:00,62.3,60.8,29.83,SSW,213,0.0,0.0,95,0.03,,---,0.24,VWS V14.01,2013-05-16 12:15:00,
2013-05-16 08:20:00,62.3,61.2,29.82,NNE,14,0.0,0.0,96,0.03,,---,0.24,VWS V14.01,2013-05-16 12:20:00,
2013-05-16 08:25:00,62.5,61.3,29.83,NNE,14,0.0,0.0,96,0.02,,---,0.24,VWS V14.01,2013-05-16 12:25:00,
2013-05-16 08:30:00,62.6,61.5,29.83,NNE,14,0.0,0.0,96,0.03,,---,0.25,VWS V14.01,2013-05-16 12:30:00,
2013-05-16 08:35:00,62.8,61.7,29.83,SSE,167,0.0,0.0,96,0.03,,---,0.25,VWS V14.01,2013-05-16 12:35:00,
2013-05-16 08:40:00,63.1,61.9,29.82,NNW,347,0.0,2.0,96,0.03,,---,0.25,VWS V14.01,2013-05-16 12:40:00,
2013-05-16 08:45:00,63.3,62.1,29.83,South,189,0.0,1.0,96,0.02,,---,0.25,VWS V14.01,2013-05-16 12:45:00,
2013-05-16 08:50:00,63.7,62.5,29.83,South,184,0.0,0.0,96,0.03,,---,0.26,VWS V14.01,2013-05-16 12:50:00,
2013-05-16 08:55:00,63.9,62.7,29.83,South,184,0.0,0.0,96,0.03,,---,0.26,VWS V14.01,2013-05-16 12:55:00,
2013-05-16 09:00:00,64.0,62.8,29.83,SSW,202,0.0,0.0,96,0.03,,---,0.26,VWS V14.01,2013-05-16 13:00:00,
2013-05-16 09:05:00,64.1,62.9,29.83,SSW,202,0.0,0.0,96,0.03,,---,0.26,VWS V14.01,2013-05-16 13:05:00,
2013-05-16 09:10:00,64.3,63.1,29.84,SSW,202,0.0,0.0,96,0.04,,---,0.27,VWS V14.01,2013-05-16 13:10:00,
2013-05-16 09:15:00,64.5,63.3,29.84,SW,234,0.0,0.0,96,0.03,,---,0.27,VWS V14.01,2013-05-16 13:15:00,
2013-05-16 09:20:00,64.7,63.8,29.84,SSE,151,0.0,0.0,97,0.03,,---,0.27,VWS V14.01,2013-05-16 13:20:00,
2013-05-16 09:25:00,64.9,63.7,29.83,SSE,167,0.0,3.0,96,0.03,,---,0.27,VWS V14.01,2013-05-16 13:25:00,
2013-05-16 09:30:00,64.9,63.7,29.84,SSE,165,0.0,0.0,96,0.02,,---,0.27,VWS V14.01,2013-05-16 13:30:00,
2013-05-16 09:35:00,65.0,63.8,29.84,SSW,204,0.0,2.0,96,0.03,,---,0.28,VWS V14.01,2013-05-16 13:35:00,
2013-05-16 09:40:00,65.1,64.2,29.84,NE,39,0.0,0.0,97,0.03,,---,0.28,VWS V14.01,2013-05-16 13:40:00,
2013-05-16 09:45:00,65.3,64.4,29.84,NE,40,0.0,1.0,97,0.03,,---,0.28,VWS V14.01,2013-05-16 13:45:00,
2013-05-16 09:50:00,65.8,64.9,29.83,SE,144,0.0,3.0,97,0.03,,---,0.28,VWS V14.01,2013-05-16 13:50:00,
2013-05-16 09:55:00,66.2,65.3,29.83,SSW,213,0.0,1.0,97,0.02,,---,0.28,VWS V14.01,2013-05-16 13:55:00,
2013-05-16 10:00:00,66.4,65.5,29.83,South,175,0.0,1.0,97,0.02,,---,0.28,VWS V14.01,2013-05-16 14:00:00,
2013-05-16 10:05:00,66.7,65.8,29.83,ESE,116,1.0,2.0,97,0.02,,---,0.28,VWS V14.01,2013-05-16 14:05:00,
2013-05-16 10:10:00,67.0,66.1,29.83,SSE,156,1.0,3.0,97,0.02,,---,0.29,VWS V14.01,2013-05-16 14:10:00,
2013-05-16 10:15:00,67.3,66.4,29.84,SSW,200,1.0,4.0,97,0.02,,---,0.29,VWS V14.01,2013-05-16 14:15:00,
2013-05-16 10:20:00,67.2,66.0,29.83,ESE,120,0.0,1.0,96,0.02,,---,0.29,VWS V14.01,2013-05-16 14:20:00,
2013-05-16 10:25:00,67.3,66.1,29.83,South,173,3.0,5.0,96,0.02,,---,0.29,VWS V14.01,2013-05-16 14:25:00,
2013-05-16 10:30:00,67.3,66.1,29.83,SSW,210,0.0,2.0,96,0.02,,---,0.29,VWS V14.01,2013-05-16 14:30:00,
2013-05-16 10:35:00,67.5,66.3,29.83,WNW,294,1.0,2.0,96,0.02,,---,0.29,VWS V14.01,2013-05-16 14:35:00,
2013-05-16 10:40:00,67.7,66.5,29.84,WSW,252,0.0,0.0,96,0.01,,---,0.29,VWS V14.01,2013-05-16 14:40:00,
2013-05-16 10:45:00,67.8,66.6,29.84,WNW,289,0.0,3.0,96,0.01,,---,0.29,VWS V14.01,2013-05-16 14:45:00,
2013-05-16 10:50:00,67.8,66.3,29.84,SSE,166,0.0,2.0,95,0.01,,---,0.29,VWS V14.01,2013-05-16 14:50:00,
2013-05-16 10:55:00,68.0,66.5,29.84,WNW,285,0.0,3.0,95,0.01,,---,0.29,VWS V14.01,2013-05-16 14:55:00,
2013-05-16 11:00:00,68.3,66.8,29.85,WNW,285,0.0,1.0,95,0.01,,---,0.29,VWS V14.01,2013-05-16 15:00:00,
2013-05-16 11:05:00,68.5,66.7,29.85,WNW,285,0.0,0.0,94,0.01,,---,0.29,VWS V14.01,2013-05-16 15:05:00,
2013-05-16 11:10:00,69.0,67.5,29.85,WSW,254,1.0,4.0,95,0.00,,---,0.29,VWS V14.01,2013-05-16 15:10:00,
2013-05-16 11:15:00,69.4,67.6,29.85,SSE,156,1.0,3.0,94,0.00,,---,0.29,VWS V14.01,2013-05-16 15:15:00,
2013-05-16 11:20:00,70.1,68.0,29.85,SW,223,0.0,1.0,93,0.00,,---,0.29,VWS V14.01,2013-05-16 15:20:00,
2013-05-16 11:25:00,70.5,68.1,29.85,SSE,153,0.0,2.0,92,0.00,,---,0.29,VWS V14.01,2013-05-16 15:25:00,
2013-05-16 11:30:00,70.8,67.4,29.85,NW,315,5.0,5.0,89,0.00,,---,0.29,VWS V14.01,2013-05-16 15:30:00,
2013-05-16 11:35:00,71.3,67.6,29.85,SSW,207,0.0,3.0,88,0.00,,---,0.29,VWS V14.01,2013-05-16 15:35:00,
2013-05-16 11:40:00,71.6,66.9,29.85,SW,223,0.0,2.0,85,0.00,,---,0.29,VWS V14.01,2013-05-16 15:40:00,
2013-05-16 11:45:00,72.2,66.4,29.85,ENE,63,0.0,2.0,82,0.00,,---,0.29,VWS V14.01,2013-05-16 15:45:00,
2013-05-16 11:50:00,72.8,66.6,29.86,WNW,294,0.0,9.0,81,0.00,,---,0.29,VWS V14.01,2013-05-16 15:50:00,
2013-05-16 11:55:00,73.2,66.3,29.85,SW,229,2.0,2.0,79,0.00,,---,0.29,VWS V14.01,2013-05-16 15:55:00,
2013-05-16 12:00:00,73.7,66.4,29.86,WSW,252,1.0,3.0,78,0.00,,---,0.29,VWS V14.01,2013-05-16 16:00:00,
2013-05-16 12:05:00,74.2,66.2,29.86,West,262,1.0,2.0,76,0.00,,---,0.29,VWS V14.01,2013-05-16 16:05:00,
2013-05-16 12:10:00,74.5,65.7,29.86,West,276,1.0,4.0,74,0.00,,---,0.29,VWS V14.01,2013-05-16 16:10:00,
2013-05-16 12:15:00,74.8,64.8,29.86,SSE,162,2.0,5.0,71,0.00,,---,0.29,VWS V14.01,2013-05-16 16:15:00,
2013-05-16 12:20:00,75.1,64.7,29.86,NW,306,1.0,7.0,70,0.00,,---,0.29,VWS V14.01,2013-05-16 16:20:00,
2013-05-16 12:25:00,75.5,65.8,29.86,NW,305,0.0,6.0,72,0.00,,---,0.29,VWS V14.01,2013-05-16 16:25:00,
2013-05-16 12:30:00,75.8,64.9,29.86,South,171,2.0,3.0,69,0.00,,---,0.29,VWS V14.01,2013-05-16 16:30:00,
2013-05-16 12:35:00,76.0,63.8,29.85,SSW,198,0.0,1.0,66,0.00,,---,0.29,VWS V14.01,2013-05-16 16:35:00,
2013-05-16 12:40:00,76.4,65.5,29.86,NW,305,0.0,5.0,69,0.00,,---,0.29,VWS V14.01,2013-05-16 16:40:00,
2013-05-16 12:45:00,76.7,65.3,29.85,NNE,13,1.0,5.0,68,0.00,,---,0.29,VWS V14.01,2013-05-16 16:45:00,
2013-05-16 12:50:00,77.1,65.3,29.85,WSW,240,0.0,1.0,67,0.00,,---,0.29,VWS V14.01,2013-05-16 16:50:00,
2013-05-16 12:55:00,77.4,64.7,29.85,SW,225,2.0,5.0,65,0.00,,---,0.29,VWS V14.01,2013-05-16 16:55:00,
2013-05-16 13:00:00,77.7,64.6,29.85,NW,306,0.0,3.0,64,0.00,,---,0.29,VWS V14.01,2013-05-16 17:00:00,
2013-05-16 13:05:00,77.9,64.3,29.85,North,11,0.0,3.0,63,0.00,,---,0.29,VWS V14.01,2013-05-16 17:05:00,
2013-05-16 13:10:00,78.0,62.5,29.86,NW,314,2.0,3.0,59,0.00,,---,0.29,VWS V14.01,2013-05-16 17:10:00,
2013-05-16 13:15:00,78.2,62.7,29.85,NW,311,1.0,5.0,59,0.00,,---,0.29,VWS V14.01,2013-05-16 17:15:00,
2013-05-16 13:20:00,78.2,63.2,29.86,NW,317,3.0,8.0,60,0.00,,---,0.29,VWS V14.01,2013-05-16 17:20:00,
2013-05-16 13:25:00,78.1,62.6,29.86,WNW,295,0.0,1.0,59,0.00,,---,0.29,VWS V14.01,2013-05-16 17:25:00,
2013-05-16 13:30:00,77.8,61.4,29.86,SW,234,1.0,4.0,57,0.00,,---,0.29,VWS V14.01,2013-05-16 17:30:00,
2013-05-16 13:35:00,77.6,61.7,29.85,SW,223,0.0,0.0,58,0.00,,---,0.29,VWS V14.01,2013-05-16 17:35:00,
2013-05-16 13:40:00,77.5,61.6,29.85,NW,311,0.0,1.0,58,0.00,,---,0.29,VWS V14.01,2013-05-16 17:40:00,
2013-05-16 13:45:00,77.3,59.4,29.86,West,273,1.0,5.0,54,0.00,,---,0.29,VWS V14.01,2013-05-16 17:45:00,
2013-05-16 13:50:00,77.2,58.2,29.86,WNW,301,1.0,5.0,52,0.00,,---,0.29,VWS V14.01,2013-05-16 17:50:00,
2013-05-16 13:55:00,77.3,59.9,29.85,West,271,3.0,4.0,55,0.00,,---,0.29,VWS V14.01,2013-05-16 17:55:00,
2013-05-16 14:00:00,77.6,58.6,29.86,NNW,340,1.0,2.0,52,0.00,,---,0.29,VWS V14.01,2013-05-16 18:00:00,
2013-05-16 14:05:00,77.7,55.9,29.86,NW,307,0.0,4.0,47,0.00,,---,0.29,VWS V14.01,2013-05-16 18:05:00,
2013-05-16 14:10:00,77.8,58.2,29.86,NW,321,1.0,3.0,51,0.00,,---,0.29,VWS V14.01,2013-05-16 18:10:00,
2013-05-16 14:15:00,77.7,55.9,29.86,SW,230,0.0,0.0,47,0.00,,---,0.29,VWS V14.01,2013-05-16 18:15:00,
2013-05-16 14:20:00,77.6,57.0,29.85,NW,305,0.0,0.0,49,0.00,,---,0.29,VWS V14.01,2013-05-16 18:20:00,
2013-05-16 14:25:00,77.6,60.2,29.86,SW,225,0.0,3.0,55,0.00,,---,0.29,VWS V14.01,2013-05-16 18:25:00,
2013-05-16 14:30:00,77.5,60.1,29.86,NW,314,4.0,4.0,55,0.00,,---,0.29,VWS V14.01,2013-05-16 18:30:00,
2013-05-16 14:35:00,77.3,57.8,29.86,South,190,1.0,3.0,51,0.00,,---,0.29,VWS V14.01,2013-05-16 18:35:00,
2013-05-16 14:40:00,77.1,57.6,29.86,West,273,0.0,0.0,51,0.00,,---,0.29,VWS V14.01,2013-05-16 18:40:00,
2013-05-16 14:45:00,76.9,59.0,29.86,West,268,0.0,2.0,54,0.00,,---,0.29,VWS V14.01,2013-05-16 18:45:00,
2013-05-16 14:50:00,76.7,56.7,29.86,NW,307,1.0,2.0,50,0.00,,---,0.29,VWS V14.01,2013-05-16 18:50:00,
2013-05-16 14:55:00,76.7,58.3,29.86,WSW,242,0.0,2.0,53,0.00,,---,0.29,VWS V14.01,2013-05-16 18:55:00,
2013-05-16 15:00:00,76.6,58.2,29.85,SSW,211,0.0,5.0,53,0.00,,---,0.29,VWS V14.01,2013-05-16 19:00:00,
2013-05-16 15:05:00,76.5,57.0,29.85,WSW,237,0.0,1.0,51,0.00,,---,0.29,VWS V14.01,2013-05-16 19:05:00,
2013-05-16 15:10:00,76.7,57.2,29.85,South,180,0.0,3.0,51,0.00,,---,0.29,VWS V14.01,2013-05-16 19:10:00,
2013-05-16 15:15:00,77.1,58.7,29.85,NE,36,0.0,2.0,53,0.00,,---,0.29,VWS V14.01,2013-05-16 19:15:00,
2013-05-16 15:20:00,78.0,58.4,29.85,SW,223,2.0,2.0,51,0.00,,---,0.29,VWS V14.01,2013-05-16 19:20:00,
2013-05-16 15:25:00,78.7,56.8,29.85,WNW,294,4.0,6.0,47,0.00,,---,0.29,VWS V14.01,2013-05-16 19:25:00,
2013-05-16 15:30:00,79.2,56.7,29.85,SW,223,0.0,0.0,46,0.00,,---,0.29,VWS V14.01,2013-05-16 19:30:00,
2013-05-16 15:35:00,79.8,58.4,29.85,WSW,250,0.0,4.0,48,0.00,,---,0.29,VWS V14.01,2013-05-16 19:35:00,
2013-05-16 15:40:00,80.5,56.0,29.85,South,191,0.0,4.0,43,0.00,,---,0.29,VWS V14.01,2013-05-16 19:40:00,
2013-05-16 15:45:00,80.7,57.4,29.85,West,273,0.0,5.0,45,0.00,,---,0.29,VWS V14.01,2013-05-16 19:45:00,
2013-05-16 15:50:00,80.8,56.2,29.85,West,272,0.0,4.0,43,0.00,,---,0.29,VWS V14.01,2013-05-16 19:50:00,
2013-05-16 15:55:00,81.2,60.8,29.85,West,276,0.0,1.0,50,0.00,,---,0.29,VWS V14.01,2013-05-16 19:55:00,
2013-05-16 16:00:00,81.6,57.6,29.85,SSE,168,0.0,2.0,44,0.00,,---,0.29,VWS V14.01,2013-05-16 20:00:00,
2013-05-16 16:05:00,81.7,55.0,29.85,SSE,153,0.0,2.0,40,0.00,,---,0.29,VWS V14.01,2013-05-16 20:05:00,
2013-05-16 16:10:00,81.5,57.5,29.85,SSW,205,1.0,3.0,44,0.00,,---,0.29,VWS V14.01,2013-05-16 20:10:00,
2013-05-16 16:15:00,81.0,59.5,29.85,South,178,0.0,1.0,48,0.00,,---,0.29,VWS V14.01,2013-05-16 20:15:00,
2013-05-16 16:20:00,80.9,61.1,29.85,WNW,298,0.0,3.0,51,0.00,,---,0.29,VWS V14.01,2013-05-16 20:20:00,
2013-05-16 16:25:00,81.0,57.1,29.85,NW,319,0.0,6.0,44,0.00,,---,0.29,VWS V14.01,2013-05-16 20:25:00,
2013-05-16 16:30:00,81.4,58.0,29.85,WNW,286,0.0,3.0,45,0.00,,---,0.29,VWS V14.01,2013-05-16 20:30:00,
2013-05-16 16:35:00,81.5,54.2,29.85,SSW,205,3.0,3.0,39,0.00,,---,0.29,VWS V14.01,2013-05-16 20:35:00,
2013-05-16 16:40:00,81.3,55.4,29.86,West,278,0.0,3.0,41,0.00,,---,0.29,VWS V14.01,2013-05-16 20:40:00,
2013-05-16 16:45:00,81.3,58.6,29.86,West,276,1.0,2.0,46,0.00,,---,0.29,VWS V14.01,2013-05-16 20:45:00,
2013-05-16 16:50:00,81.4,54.1,29.86,WSW,255,0.0,2.0,39,0.00,,---,0.29,VWS V14.01,2013-05-16 20:50:00,
2013-05-16 16:55:00,81.5,60.5,29.86,WSW,250,0.0,1.0,49,0.00,,---,0.29,VWS V14.01,2013-05-16 20:55:00,
2013-05-16 17:00:00,81.6,55.6,29.86,West,278,1.0,3.0,41,0.00,,---,0.29,VWS V14.01,2013-05-16 21:00:00,
2013-05-16 17:05:00,81.7,56.4,29.86,WNW,288,3.0,5.0,42,0.00,,---,0.29,VWS V14.01,2013-05-16 21:05:00,
2013-05-16 17:10:00,82.0,58.0,29.86,WSW,240,0.0,4.0,44,0.00,,---,0.29,VWS V14.01,2013-05-16 21:10:00,
2013-05-16 17:15:00,81.9,55.9,29.86,SSW,211,0.0,2.0,41,0.00,,---,0.29,VWS V14.01,2013-05-16 21:15:00,
2013-05-16 17:20:00,81.7,57.0,29.86,SSW,205,1.0,2.0,43,0.00,,---,0.29,VWS V14.01,2013-05-16 21:20:00,
2013-05-16 17:25:00,81.4,56.8,29.86,NNW,333,0.0,1.0,43,0.00,,---,0.29,VWS V14.01,2013-05-16 21:25:00,
2013-05-16 17:30:00,81.0,56.4,29.86,WSW,245,0.0,3.0,43,0.00,,---,0.29,VWS V14.01,2013-05-16 21:30:00,
2013-05-16 17:35:00,80.9,56.3,29.86,WNW,292,0.0,3.0,43,0.00,,---,0.29,VWS V14.01,2013-05-16 21:35:00,
2013-05-16 17:40:00,80.9,58.2,29.86,SE,144,2.0,2.0,46,0.00,,---,0.29,VWS V14.01,2013-05-16 21:40:00,
2013-05-16 17:45:00,81.1,57.8,29.86,SSW,201,2.0,3.0,45,0.00,,---,0.29,VWS V14.01,2013-05-16 21:45:00,
2013-05-16 17:50:00,81.1,56.5,29.87,NW,322,0.0,2.0,43,0.00,,---,0.29,VWS V14.01,2013-05-16 21:50:00,
2013-05-16 17:55:00,81.2,57.9,29.86,SSW,198,0.0,4.0,45,0.00,,---,0.29,VWS V14.01,2013-05-16 21:55:00,
2013-05-16 18:00:00,81.0,55.8,29.86,SE,141,1.0,6.0,42,0.00,,---,0.29,VWS V14.01,2013-05-16 22:00:00,
2013-05-16 18:05:00,80.7,56.2,29.86,SW,221,2.0,9.0,43,0.00,,---,0.29,VWS V14.01,2013-05-16 22:05:00,
2013-05-16 18:10:00,80.4,57.1,29.86,SSW,194,0.0,0.0,45,0.00,,---,0.29,VWS V14.01,2013-05-16 22:10:00,
2013-05-16 18:15:00,80.4,58.9,29.86,WSW,251,0.0,0.0,48,0.00,,---,0.29,VWS V14.01,2013-05-16 22:15:00,
2013-05-16 18:20:00,80.4,57.1,29.86,ESE,121,1.0,1.0,45,0.00,,---,0.29,VWS V14.01,2013-05-16 22:20:00,
2013-05-16 18:25:00,80.2,54.4,29.87,NNW,336,2.0,5.0,41,0.00,,---,0.29,VWS V14.01,2013-05-16 22:25:00,
2013-05-16 18:30:00,80.0,55.5,29.87,West,274,2.0,3.0,43,0.00,,---,0.29,VWS V14.01,2013-05-16 22:30:00,
2013-05-16 18:35:00,79.6,55.8,29.87,SSW,211,0.0,2.0,44,0.00,,---,0.29,VWS V14.01,2013-05-16 22:35:00,
2013-05-16 18:40:00,79.1,54.1,29.87,WSW,254,0.0,5.0,42,0.00,,---,0.29,VWS V14.01,2013-05-16 22:40:00,
2013-05-16 18:45:00,78.5,54.8,29.87,WSW,248,0.0,2.0,44,0.00,,---,0.29,VWS V14.01,2013-05-16 22:45:00,
2013-05-16 18:50:00,77.8,55.4,29.87,West,266,0.0,1.0,46,0.00,,---,0.29,VWS V14.01,2013-05-16 22:50:00,
2013-05-16 18:55:00,77.1,55.9,29.87,SE,128,0.0,3.0,48,0.00,,---,0.29,VWS V14.01,2013-05-16 22:55:00,
2013-05-16 19:00:00,76.3,55.2,29.87,West,275,0.0,4.0,48,0.00,,---,0.29,VWS V14.01,2013-05-16 23:00:00,
2013-05-16 19:05:00,75.8,55.3,29.87,South,186,0.0,0.0,49,0.00,,---,0.29,VWS V14.01,2013-05-16 23:05:00,
2013-05-16 19:10:00,75.3,55.9,29.87,SSW,197,0.0,1.0,51,0.00,,---,0.29,VWS V14.01,2013-05-16 23:10:00,
2013-05-16 19:15:00,74.8,55.5,29.87,WSW,243,0.0,2.0,51,0.00,,---,0.29,VWS V14.01,2013-05-16 23:15:00,
2013-05-16 19:20:00,74.3,55.6,29.87,WNW,302,0.0,0.0,52,0.00,,---,0.29,VWS V14.01,2013-05-16 23:20:00,
2013-05-16 19:25:00,73.8,56.1,29.87,WNW,302,0.0,2.0,54,0.00,,---,0.29,VWS V14.01,2013-05-16 23:25:00,
2013-05-16 19:30:00,73.3,55.7,29.87,WNW,302,0.0,0.0,54,0.00,,---,0.29,VWS V14.01,2013-05-16 23:30:00,
2013-05-16 19:35:00,72.7,56.1,29.87,WNW,301,0.0,0.0,56,0.00,,---,0.29,VWS V14.01,2013-05-16 23:35:00,
2013-05-16 19:40:00,72.2,55.7,29.87,West,263,0.0,1.0,56,0.00,,---,0.29,VWS V14.01,2013-05-16 23:40:00,
2013-05-16 19:45:00,71.7,55.7,29.88,West,263,0.0,0.0,57,0.00,,---,0.29,VWS V14.01,2013-05-16 23:45:00,
2013-05-16 19:50:00,71.2,56.2,29.88,West,263,0.0,0.0,59,0.00,,---,0.29,VWS V14.01,2013-05-16 23:50:00,
2013-05-16 19:55:00,70.6,57.0,29.89,West,263,0.0,0.0,62,0.00,,---,0.29,VWS V14.01,2013-05-16 23:55:00,
2013-05-16 20:00:00,69.9,56.3,29.89,West,263,0.0,0.0,62,0.00,,---,0.29,VWS V14.01,2013-05-17 00:00:00,
2013-05-16 20:05:00,69.2,56.5,29.89,West,263,0.0,0.0,64,0.00,,---,0.29,VWS V14.01,2013-05-17 00:05:00,
2013-05-16 20:10:00,68.7,56.5,29.89,West,263,0.0,0.0,65,0.00,,---,0.29,VWS V14.01,2013-05-17 00:10:00,
2013-05-16 20:15:00,68.1,56.3,29.89,West,263,0.0,0.0,66,0.00,,---,0.29,VWS V14.01,2013-05-17 00:15:00,
2013-05-16 20:20:00,67.4,56.1,29.90,West,263,0.0,0.0,67,0.00,,---,0.29,VWS V14.01,2013-05-17 00:20:00,
2013-05-16 20:25:00,66.9,56.0,29.90,West,263,0.0,0.0,68,0.00,,---,0.29,VWS V14.01,2013-05-17 00:25:00,
2013-05-16 20:30:00,66.2,55.7,29.90,West,263,0.0,0.0,69,0.00,,---,0.29,VWS V14.01,2013-05-17 00:30:00,
2013-05-16 20:35:00,65.8,56.2,29.90,West,263,0.0,0.0,71,0.00,,---,0.29,VWS V14.01,2013-05-17 00:35:00,
2013-05-16 20:40:00,65.2,56.0,29.90,West,263,0.0,0.0,72,0.00,,---,0.29,VWS V14.01,2013-05-17 00:40:00,
2013-05-16 20:45:00,64.7,55.5,29.90,West,263,0.0,0.0,72,0.00,,---,0.29,VWS V14.01,2013-05-17 00:45:00,
2013-05-16 20:50:00,64.2,55.8,29.90,West,263,0.0,0.0,74,0.00,,---,0.29,VWS V14.01,2013-05-17 00:50:00,
2013-05-16 20:55:00,63.8,55.7,29.90,West,263,0.0,0.0,75,0.00,,---,0.29,VWS V14.01,2013-05-17 00:55:00,
2013-05-16 21:00:00,63.4,55.7,29.90,West,263,0.0,0.0,76,0.00,,---,0.29,VWS V14.01,2013-05-17 01:00:00,
2013-05-16 21:05:00,63.1,55.8,29.91,West,263,0.0,0.0,77,0.00,,---,0.29,VWS V14.01,2013-05-17 01:05:00,
2013-05-16 21:10:00,62.8,56.2,29.91,West,263,0.0,0.0,79,0.00,,---,0.29,VWS V14.01,2013-05-17 01:10:00,
2013-05-16 21:15:00,62.5,55.9,29.91,West,263,0.0,0.0,79,0.00,,---,0.29,VWS V14.01,2013-05-17 01:15:00,
2013-05-16 21:20:00,62.3,56.4,29.91,West,263,0.0,0.0,81,0.00,,---,0.29,VWS V14.01,2013-05-17 01:20:00,
2013-05-16 21:25:00,62.1,56.2,29.91,West,263,0.0,0.0,81,0.00,,---,0.29,VWS V14.01,2013-05-17 01:25:00,
2013-05-16 21:30:00,61.9,56.3,29.91,West,263,0.0,0.0,82,0.00,,---,0.29,VWS V14.01,2013-05-17 01:30:00,
2013-05-16 21:35:00,61.7,56.5,29.92,West,263,0.0,0.0,83,0.00,,---,0.29,VWS V14.01,2013-05-17 01:35:00,
2013-05-16 21:40:00,61.5,56.3,29.92,West,263,0.0,0.0,83,0.00,,---,0.29,VWS V14.01,2013-05-17 01:40:00,
2013-05-16 21:45:00,61.4,56.5,29.92,West,263,0.0,0.0,84,0.00,,---,0.29,VWS V14.01,2013-05-17 01:45:00,
2013-05-16 21:50:00,61.3,56.4,29.92,West,263,0.0,0.0,84,0.00,,---,0.29,VWS V14.01,2013-05-17 01:50:00,
2013-05-16 21:55:00,61.1,56.6,29.92,West,263,0.0,0.0,85,0.00,,---,0.29,VWS V14.01,2013-05-17 01:55:00,
2013-05-16 22:00:00,61.0,56.5,29.92,West,263,0.0,0.0,85,0.00,,---,0.29,VWS V14.01,2013-05-17 02:00:00,
2013-05-16 22:05:00,60.8,56.6,29.92,West,263,0.0,0.0,86,0.00,,---,0.29,VWS V14.01,2013-05-17 02:05:00,
2013-05-16 22:10:00,60.7,56.5,29.93,West,263,0.0,0.0,86,0.00,,---,0.29,VWS V14.01,2013-05-17 02:10:00,
2013-05-16 22:15:00,60.5,56.6,29.93,West,263,0.0,0.0,87,0.00,,---,0.29,VWS V14.01,2013-05-17 02:15:00,
2013-05-16 22:20:00,60.4,56.5,29.94,West,263,0.0,0.0,87,0.00,,---,0.29,VWS V14.01,2013-05-17 02:20:00,
2013-05-16 22:25:00,60.2,56.3,29.94,West,263,0.0,0.0,87,0.00,,---,0.29,VWS V14.01,2013-05-17 02:25:00,
2013-05-16 22:30:00,60.0,56.1,29.94,West,263,0.0,0.0,87,0.00,,---,0.29,VWS V14.01,2013-05-17 02:30:00,
2013-05-16 22:35:00,59.9,56.0,29.94,West,263,0.0,0.0,87,0.00,,---,0.29,VWS V14.01,2013-05-17 02:35:00,
2013-05-16 22:40:00,59.7,55.8,29.93,West,263,0.0,0.0,87,0.00,,---,0.29,VWS V14.01,2013-05-17 02:40:00,
2013-05-16 22:45:00,59.5,56.0,29.93,West,263,0.0,0.0,88,0.00,,---,0.29,VWS V14.01,2013-05-17 02:45:00,
2013-05-16 22:50:00,59.4,55.8,29.94,West,263,0.0,0.0,88,0.00,,---,0.29,VWS V14.01,2013-05-17 02:50:00,
2013-05-16 22:55:00,59.2,55.7,29.94,West,263,0.0,0.0,88,0.00,,---,0.29,VWS V14.01,2013-05-17 02:55:00,
2013-05-16 23:00:00,59.0,55.5,29.94,West,263,0.0,0.0,88,0.00,,---,0.29,VWS V14.01,2013-05-17 03:00:00,
2013-05-16 23:05:00,58.8,55.3,29.94,West,263,0.0,0.0,88,0.00,,---,0.29,VWS V14.01,2013-05-17 03:05:00,
2013-05-16 23:10:00,58.6,55.1,29.94,West,263,0.0,0.0,88,0.00,,---,0.29,VWS V14.01,2013-05-17 03:10:00,
2013-05-16 23:15:00,58.5,55.3,29.94,West,263,0.0,0.0,89,0.00,,---,0.29,VWS V14.01,2013-05-17 03:15:00,
2013-05-16 23:20:00,58.3,55.1,29.94,West,263,0.0,0.0,89,0.00,,---,0.29,VWS V14.01,2013-05-17 03:20:00,
2013-05-16 23:25:00,58.1,54.9,29.94,West,263,0.0,0.0,89,0.00,,---,0.29,VWS V14.01,2013-05-17 03:25:00,
2013-05-16 23:30:00,57.9,54.7,29.94,West,263,0.0,0.0,89,0.00,,---,0.29,VWS V14.01,2013-05-17 03:30:00,
2013-05-16 23:35:00,57.7,54.5,29.94,West,263,0.0,0.0,89,0.00,,---,0.29,VWS V14.01,2013-05-17 03:35:00,
2013-05-16 23:40:00,57.5,54.3,29.95,West,263,0.0,0.0,89,0.00,,---,0.29,VWS V14.01,2013-05-17 03:40:00,
2013-05-16 23:45:00,57.4,54.2,29.95,West,263,0.0,0.0,89,0.00,,---,0.29,VWS V14.01,2013-05-17 03:45:00,
2013-05-16 23:50:00,57.2,54.3,29.94,West,263,0.0,0.0,90,0.00,,---,0.29,VWS V14.01,2013-05-17 03:50:00,
2013-05-16 23:55:00,57.0,54.1,29.94,West,263,0.0,0.0,90,0.00,,---,0.29,VWS V14.01,2013-05-17 03:55:00,